Wind_Speed
27 27 26 26 27 28 29 29 29 28 28 27 29 29 29 29 29 29 29 28 29 30 32 33 34 34 34 34 35 35 35 34 35 36 36 35 34 35 35 36 37 37 37 37
27 27 27 27 27 28 28 28 28 28 27 27 28 29 28 28 28 28 28 29 30 30 31 32 33 33 34 35 36 36 35 35 35 36 36 35 35 35 35 36 36 37 37 37
27 27 27 27 26 27 27 27 28 29 28 27 28 28 28 28 28 28 29 29 30 31 32 32 33 33 34 35 36 36 36 36 35 35 36 36 36 36 36 36 36 37 38 38
27 27 28 27 26 26 26 27 28 29 29 29 29 29 29 30 30 30 30 29 29 30 31 32 33 33 33 34 35 35 35 35 35 36 35 36 36 36 36 37 36 36 36 38
27 28 29 27 26 26 26 27 28 28 28 29 29 29 29 30 30 31 32 31 31 31 31 32 33 33 32 32 32 33 33 34 34 35 36 36 36 36 36 36 37 37 37 38
26 27 28 27 27 27 28 28 27 27 28 28 29 30 30 30 30 31 32 32 33 32 32 32 32 32 32 32 32 31 31 32 33 33 34 35 36 36 36 37 37 37 37 37
25 26 26 26 26 27 28 28 28 28 28 28 28 28 29 30 30 30 30 30 31 31 31 31 32 32 32 32 32 32 31 32 32 32 33 34 35 36 37 37 37 38 38 37
25 25 24 24 24 25 26 27 27 27 28 28 27 28 29 29 29 29 29 29 29 30 30 30 31 32 32 32 32 32 32 33 33 33 34 35 35 36 36 37 36 37 37 37
25 25 24 24 24 24 25 25 25 25 26 27 27 28 28 29 29 29 29 29 29 29 30 30 30 30 31 31 31 32 33 33 34 34 35 35 36 36 36 36 36 37 37 38
25 25 25 25 25 24 24 25 24 25 25 25 25 26 27 28 28 28 28 28 29 29 29 30 31 30 31 31 32 33 33 34 34 34 35 35 35 35 35 36 36 36 36 37
25 25 25 24 24 25 25 25 24 24 24 24 24 25 26 26 26 26 27 27 28 28 28 30 32 32 33 33 33 33 33 33 33 34 34 34 34 34 34 35 35 35 35 35
23 22 23 23 23 24 24 23 23 23 23 23 24 24 25 25 25 25 26 27 27 27 28 28 29 31 32 32 32 32 32 32 32 32 32 32 32 33 33 34 35 35 36 36
23 23 23 23 23 23 23 23 22 22 22 22 23 23 24 24 25 25 25 26 26 26 27 27 28 28 29 30 31 31 31 31 32 32 32 32 32 32 33 33 33 34 35 35
23 23 22 22 22 22 22 23 22 21 21 22 23 23 24 24 24 24 23 24 24 25 26 26 27 28 28 29 29 29 30 30 30 31 31 31 32 32 32 32 32 32 33 33
23 23 22 21 21 21 22 22 22 22 22 22 22 23 23 23 23 22 22 23 23 24 24 25 25 25 25 26 27 27 27 27 28 28 29 29 29 29 30 30 30 30 31 31
22 22 21 21 21 21 21 21 21 22 22 22 21 21 21 21 20 20 21 21 21 22 22 23 23 24 24 24 24 25 25 26 26 27 28 28 28 29 29 30 30 30 30 29
21 21 21 21 21 21 21 21 21 22 22 21 20 20 20 20 19 19 19 20 20 20 21 22 22 22 22 23 23 24 24 24 25 26 26 26 27 27 28 28 28 28 28 27
20 20 21 21 21 21 22 22 22 21 21 21 20 19 19 19 19 18 19 19 19 20 20 21 21 21 22 23 24 24 24 25 25 25 24 24 25 26 26 26 26 27 26 26
20 20 21 21 22 22 22 22 22 22 22 21 20 19 19 19 19 19 18 18 19 19 20 21 22 22 22 22 23 24 24 25 25 25 24 24 24 25 25 25 25 25 26 25
21 21 21 22 22 22 22 22 22 22 21 20 20 19 19 19 19 19 19 19 19 19 20 21 21 21 21 22 23 23 23 23 23 24 24 24 24 24 24 24 24 24 25 25
21 21 21 21 21 21 22 22 22 22 21 20 19 19 19 19 19 19 18 19 19 20 20 20 21 21 21 21 21 22 22 22 23 23 23 24 24 24 24 24 24 24 24 24
19 19 19 19 19 20 21 22 21 21 20 19 18 19 18 18 18 18 18 18 19 19 19 19 20 20 21 21 20 21 21 22 22 22 22 23 23 23 23 23 23 23 23 23
17 17 18 18 19 19 20 20 19 19 18 18 18 18 18 18 18 18 18 18 19 19 19 19 19 20 20 21 21 21 20 20 21 21 22 22 22 22 22 22 22 22 23 23
17 17 17 18 18 18 19 18 18 17 17 18 18 18 18 17 17 18 18 18 18 18 19 19 19 20 20 20 20 20 20 20 20 21 21 20 20 21 21 21 21 21 21 21
17 17 18 18 18 18 18 17 17 17 17 17 17 17 17 17 17 17 18 18 18 19 19 19 19 19 19 20 20 20 20 20 20 19 19 19 18 18 19 19 19 19 20 20
16 17 17 17 17 17 17 17 17 16 17 17 17 17 17 17 18 18 18 19 19 19 19 19 19 19 19 19 19 19 19 19 19 19 18 18 17 17 17 17 18 18 18 18
15 16 16 17 17 17 16 16 16 16 17 17 17 18 18 18 19 19 19 19 19 19 19 19 19 19 19 18 18 18 18 17 17 17 17 16 16 16 16 16 16 17 17 17
Wind_Direction
274 275 275 273 271 270 270 272 271 270 267 266 267 267 266 265 263 261 260 258 256 254 253 252 251 251 251 249 249 249 249 249 248 248 250 250 251 251 253 254 254 254 255 255
273 274 274 272 270 270 270 271 271 268 265 265 265 264 264 264 264 262 260 258 257 255 254 253 252 252 251 250 250 250 250 250 249 249 250 251 252 252 252 252 252 255 256 256
274 273 272 269 271 272 271 270 270 270 269 266 264 262 263 263 263 261 259 257 256 255 253 252 251 252 253 252 253 251 251 251 250 250 250 251 253 254 253 253 254 255 256 257
274 274 272 272 272 273 273 270 269 268 268 267 265 262 262 261 260 259 258 257 256 256 254 252 252 254 255 253 254 253 252 252 251 251 251 253 254 254 253 254 254 256 257 258
274 274 274 272 272 273 274 271 269 268 267 265 262 260 259 259 260 259 258 257 257 256 254 253 252 253 253 253 254 254 253 252 251 251 251 252 253 254 256 255 255 256 258 259
272 274 276 275 274 272 274 274 270 270 268 266 262 259 257 258 260 260 258 258 257 256 255 254 253 252 253 253 254 254 253 252 252 252 252 253 254 256 257 257 257 258 259 261
272 275 277 277 276 275 275 276 274 273 271 268 265 263 261 261 262 262 261 259 257 257 255 255 254 253 253 254 254 254 253 252 252 253 254 254 256 257 258 259 259 259 261 262
272 274 276 277 277 276 278 276 275 275 274 272 269 266 264 264 264 262 260 259 259 258 257 256 254 255 254 254 253 252 252 253 254 255 255 257 258 258 259 259 259 260 262 263
272 273 273 275 276 277 278 277 276 276 275 274 272 269 267 265 264 263 261 260 261 260 258 257 257 257 255 254 253 253 254 255 256 257 258 259 260 260 259 259 260 262 262 263
271 271 273 276 276 277 277 277 275 275 274 273 271 270 269 268 265 263 262 261 261 262 259 259 259 258 256 255 255 256 256 256 256 257 258 259 259 259 259 260 262 262 263 264
272 272 273 275 275 276 277 277 276 274 274 273 271 270 271 270 268 265 263 262 261 260 260 260 259 257 257 257 257 258 259 257 256 256 258 259 260 259 259 260 262 262 263 264
276 274 273 274 275 276 276 278 279 277 275 274 273 273 273 272 270 267 264 262 260 260 261 261 259 257 257 257 257 258 258 258 257 256 257 258 259 259 260 261 261 262 262 264
275 274 273 274 275 276 276 278 281 279 276 275 274 275 274 273 271 269 266 262 259 259 260 260 258 256 256 257 258 258 258 258 258 257 257 258 259 261 262 262 262 263 263 264
274 274 272 273 273 275 276 278 280 281 280 279 277 275 274 273 271 269 266 262 259 259 259 258 257 257 257 258 258 257 257 257 257 258 259 260 260 261 261 261 262 263 263 264
273 273 271 271 273 275 277 279 281 282 283 281 279 277 276 273 271 269 267 264 261 259 258 257 255 256 258 258 257 257 257 257 258 259 260 260 261 261 261 262 262 263 264 264
272 270 270 271 273 275 278 281 283 283 285 283 279 277 277 275 272 268 267 265 262 258 257 257 255 256 257 257 256 257 258 259 260 261 262 263 263 263 262 261 262 264 265 265
271 270 270 270 272 275 278 280 283 285 286 284 279 277 275 273 270 268 267 266 264 259 257 257 256 255 256 255 255 257 259 260 263 263 264 263 263 263 262 261 263 264 265 265
270 270 270 271 271 273 277 279 282 285 286 284 279 275 274 272 269 267 266 265 264 261 259 257 256 256 256 256 255 257 259 261 264 264 264 263 262 262 261 261 263 263 262 262
269 271 273 274 273 274 276 277 280 282 284 283 278 275 273 271 269 269 267 264 262 261 261 261 260 259 260 260 259 259 260 261 262 263 263 263 262 261 261 262 262 262 260 260
270 272 274 275 274 275 276 277 279 282 282 280 277 274 273 270 269 268 266 264 264 265 265 264 261 261 261 261 260 259 259 260 261 262 262 262 262 263 262 261 261 261 261 260
272 272 273 274 275 276 277 278 279 281 278 275 275 274 274 271 270 269 268 267 266 267 266 264 262 262 263 262 260 259 258 260 260 260 259 260 262 263 262 261 262 262 263 261
271 271 272 274 277 279 280 279 279 278 273 271 273 274 273 272 271 270 269 268 267 268 267 265 263 263 263 262 261 260 259 258 259 260 261 261 261 262 262 261 261 263 262 261
272 271 273 276 279 282 282 280 278 276 271 270 272 272 271 271 270 270 269 269 269 268 267 266 265 264 263 262 261 261 259 258 258 259 262 261 260 260 260 261 260 262 261 261
273 274 276 280 282 284 284 281 278 274 272 272 273 273 272 272 271 271 271 271 269 268 267 266 265 264 263 263 261 259 258 258 259 261 262 261 260 259 259 259 258 259 258 259
275 275 277 280 283 285 284 280 276 274 272 272 273 273 272 272 273 274 273 272 270 269 267 267 267 265 265 264 261 258 258 259 260 261 263 262 260 259 259 259 259 258 259 259
279 278 279 281 284 285 283 279 275 273 272 273 274 274 273 274 275 276 275 273 271 269 268 268 268 267 266 264 262 260 260 260 260 260 260 258 258 258 259 259 258 258 258 258
283 282 282 283 285 286 284 278 273 272 272 272 273 273 273 274 275 276 275 274 273 271 271 270 269 267 265 263 260 260 259 259 258 257 255 254 254 255 257 257 257 257 258 258
Height
5574 5573 5572 5572 5571 5571 5570 5570 5569 5570 5570 5572 5571 5570 5571 5571 5572 5573 5574 5575 5576 5577 5578 5579 5581 5583 5585 5587 5589 5591 5593 5595 5597 5599 5601 5603 5605 5607 5609 5611 5612 5614 5616 5617
5566 5565 5564 5563 5564 5563 5563 5562 5561 5561 5562 5563 5562 5562 5562 5563 5564 5564 5565 5566 5567 5568 5569 5571 5573 5574 5576 5578 5580 5582 5584 5586 5588 5590 5592 5594 5596 5598 5599 5601 5602 5604 5606 5607
5557 5557 5555 5555 5557 5556 5555 5555 5554 5553 5555 5554 5554 5554 5555 5555 5556 5556 5557 5558 5558 5560 5561 5562 5564 5565 5567 5569 5570 5572 5575 5577 5579 5581 5583 5585 5586 5588 5590 5591 5593 5594 5596 5597
5548 5548 5547 5551 5549 5548 5547 5547 5546 5545 5545 5545 5545 5545 5546 5547 5547 5548 5548 5549 5550 5551 5552 5553 5555 5556 5558 5559 5561 5563 5565 5567 5570 5572 5573 5575 5577 5578 5580 5581 5583 5584 5585 5586
5539 5538 5538 5541 5541 5540 5539 5539 5538 5537 5536 5536 5536 5537 5538 5538 5538 5539 5539 5540 5541 5542 5543 5544 5545 5547 5548 5550 5552 5554 5556 5558 5560 5562 5564 5565 5567 5568 5570 5571 5572 5574 5575 5576
5532 5531 5531 5534 5533 5531 5531 5530 5530 5529 5528 5527 5527 5528 5530 5530 5530 5530 5530 5531 5531 5532 5533 5535 5536 5538 5539 5541 5543 5545 5547 5548 5550 5551 5553 5555 5557 5558 5559 5561 5562 5563 5564 5565
5524 5523 5523 5525 5524 5523 5524 5523 5522 5520 5519 5519 5519 5519 5520 5520 5520 5520 5521 5521 5522 5523 5524 5525 5527 5528 5530 5532 5534 5535 5537 5538 5540 5542 5543 5545 5546 5548 5549 5550 5551 5552 5554 5554
5516 5516 5518 5517 5516 5515 5515 5514 5513 5512 5511 5510 5510 5510 5510 5511 5511 5511 5512 5513 5513 5514 5515 5516 5517 5519 5520 5522 5524 5526 5527 5529 5530 5532 5533 5535 5536 5537 5538 5539 5540 5541 5542 5543
5510 5511 5510 5509 5508 5507 5506 5505 5504 5504 5503 5502 5502 5502 5502 5502 5502 5503 5503 5504 5504 5505 5506 5507 5508 5509 5511 5512 5514 5515 5517 5519 5520 5521 5523 5524 5525 5526 5527 5528 5529 5530 5531 5532
5502 5502 5502 5501 5500 5500 5499 5497 5496 5496 5495 5494 5493 5493 5493 5493 5493 5494 5494 5495 5495 5496 5497 5498 5499 5500 5501 5503 5504 5506 5507 5509 5510 5511 5512 5513 5514 5515 5516 5517 5519 5519 5520 5520
5494 5495 5494 5494 5493 5492 5491 5490 5489 5488 5487 5486 5486 5485 5485 5485 5485 5485 5485 5486 5486 5487 5488 5489 5490 5491 5492 5493 5494 5496 5497 5499 5500 5501 5502 5503 5504 5505 5506 5507 5508 5509 5509 5509
5487 5488 5487 5487 5486 5485 5484 5483 5481 5480 5479 5478 5478 5477 5477 5477 5476 5476 5476 5477 5477 5478 5479 5479 5480 5481 5483 5484 5485 5486 5488 5489 5490 5491 5492 5493 5494 5495 5495 5497 5497 5498 5498 5499
5480 5479 5479 5479 5478 5477 5476 5475 5474 5473 5472 5471 5470 5470 5469 5469 5468 5468 5468 5468 5469 5470 5470 5471 5471 5472 5474 5475 5476 5477 5478 5479 5481 5482 5483 5483 5484 5485 5486 5486 5487 5487 5487 5488
5472 5472 5472 5472 5471 5470 5469 5468 5467 5466 5465 5463 5463 5462 5461 5461 5460 5460 5460 5460 5460 5461 5462 5462 5463 5464 5465 5466 5467 5468 5469 5470 5471 5472 5473 5474 5475 5475 5476 5476 5477 5477 5477 5477
5465 5464 5464 5464 5464 5463 5462 5461 5460 5459 5458 5456 5455 5454 5453 5453 5452 5452 5452 5451 5452 5452 5453 5454 5455 5456 5457 5457 5458 5459 5460 5461 5462 5463 5463 5464 5465 5465 5466 5466 5467 5467 5467 5467
5457 5457 5457 5457 5457 5456 5456 5455 5453 5452 5451 5449 5448 5447 5446 5445 5445 5444 5444 5444 5444 5444 5445 5446 5447 5448 5449 5449 5450 5451 5452 5453 5453 5454 5454 5455 5455 5456 5456 5457 5457 5458 5458 5458
5450 5450 5450 5450 5450 5449 5449 5447 5446 5445 5444 5442 5441 5440 5439 5438 5438 5438 5437 5437 5437 5437 5438 5438 5439 5440 5441 5442 5442 5443 5444 5445 5445 5445 5445 5446 5446 5446 5447 5448 5448 5449 5449 5449
5443 5443 5443 5443 5442 5442 5441 5440 5439 5438 5436 5435 5434 5433 5432 5432 5431 5431 5431 5431 5431 5431 5431 5431 5432 5433 5433 5434 5435 5435 5436 5436 5437 5437 5437 5437 5437 5438 5438 5439 5439 5440 5440 5441
5436 5435 5435 5435 5435 5434 5433 5433 5432 5431 5429 5428 5427 5426 5426 5425 5425 5425 5424 5424 5424 5424 5425 5425 5425 5425 5426 5426 5427 5427 5428 5428 5428 5429 5429 5429 5429 5430 5430 5431 5431 5432 5432 5433
5428 5428 5428 5427 5427 5427 5426 5425 5424 5423 5422 5421 5420 5420 5419 5419 5418 5418 5418 5418 5418 5418 5418 5418 5418 5418 5419 5419 5419 5419 5420 5420 5420 5421 5421 5421 5421 5422 5422 5422 5423 5423 5424 5425
5421 5421 5421 5420 5420 5419 5418 5418 5417 5416 5415 5414 5414 5413 5413 5412 5412 5411 5411 5411 5411 5411 5411 5411 5411 5411 5412 5412 5412 5412 5412 5412 5413 5413 5413 5413 5414 5414 5414 5414 5415 5415 5416 5416
5414 5414 5414 5413 5413 5412 5411 5410 5409 5409 5408 5408 5407 5407 5406 5405 5405 5405 5405 5405 5405 5404 5404 5404 5404 5404 5404 5405 5405 5405 5405 5405 5405 5406 5406 5406 5406 5406 5406 5407 5407 5407 5408 5408
5408 5407 5407 5407 5406 5405 5404 5403 5402 5401 5401 5401 5401 5400 5400 5399 5399 5399 5399 5398 5398 5398 5397 5397 5397 5398 5398 5398 5398 5398 5398 5398 5398 5398 5398 5398 5398 5399 5399 5399 5399 5400 5400 5401
5401 5401 5401 5400 5399 5398 5397 5396 5395 5395 5395 5395 5394 5394 5393 5393 5393 5392 5392 5391 5391 5391 5391 5391 5391 5391 5391 5391 5391 5391 5391 5391 5391 5391 5391 5391 5391 5391 5391 5392 5392 5392 5393 5393
5395 5395 5394 5394 5393 5392 5391 5390 5389 5389 5388 5388 5388 5387 5387 5387 5387 5386 5385 5385 5385 5384 5384 5384 5384 5384 5384 5384 5384 5384 5384 5384 5384 5384 5384 5384 5384 5385 5385 5385 5385 5386 5386 5387
5389 5389 5388 5387 5386 5386 5384 5384 5383 5383 5382 5382 5382 5381 5381 5381 5380 5380 5379 5378 5378 5378 5377 5377 5377 5377 5377 5377 5377 5377 5377 5377 5378 5378 5378 5378 5378 5379 5379 5379 5379 5380 5380 5380
5384 5383 5382 5381 5380 5379 5378 5377 5377 5377 5376 5376 5376 5375 5375 5374 5374 5373 5373 5372 5371 5371 5371 5370 5370 5370 5370 5370 5370 5370 5371 5371 5371 5372 5372 5372 5373 5373 5374 5374 5374 5374 5374 5375